Flag for U.S.A. Weather past 2 weeks in San Antonio, Texas, U.S.A.

Now
76 °F

Passing clouds.


Feels Like: 77 °F
Forecast: 74 / 94 °F
Wind: 7 mph from Southeast

Location: San Antonio International Airport

Current Time: Aug 31, 2015 at 4:52:48 AM

Latest Report: Aug 31, 2015 at 3:58 AM


Visibility: 10 mi

Pressure: 29.99 "Hg

Humidity: 82%

Dew point: 70 °F

Location of San AntonioLocation

Historic Weather in San Antonio — Graph

°F

San Antonio temperature yesterday

Maximum temperature yesterday: 93 °F (at 3:51 PM)
Minimum temperature yesterday: 75 °F (at 5:51 AM)
Average temperature yesterday: 83 °F

Past Weeks' High & Low Weather Summary

 TemperatureHumidityPressure
High100 °F (Aug 25, 4:51 PM)90% (Aug 20, 11:51 PM)30.12 "Hg (Aug 20, 11:51 PM)
Low72 °F (Aug 28, 6:51 AM)29% (Aug 25, 4:51 PM)29.67 "Hg (Aug 18, 6:51 PM)
Average85 °F61%29.93 "Hg
* Reported Aug 16 3:51 AM — Aug 31 3:58 AM, San Antonio, Weather by CustomWeather, © 2015

Note: Actual official high and low records may vary slightly from our data, if they occured in-between our weather recording intervals... More about our weather records

Advertising

San Antonio weather history for previous 24 hours

 ConditionsComfort  
Time TempWeatherWind HumidityBarometerVisibility
3:58 AM
Mon, Aug 31
76 °FPassing clouds.7 mph82%29.99 "Hg10 mi
2:51 AM77 °FPassing clouds.6 mph79%29.93 "Hg10 mi
1:51 AM78 °FPassing clouds.7 mph74%29.94 "Hg10 mi
12:51 AM79 °FPassing clouds.8 mph69%29.93 "Hg10 mi
11:51 PM
Sun, Aug 30
80 °FPassing clouds.10 mph62%29.93 "Hg10 mi
10:51 PM79 °FPassing clouds.9 mph58%29.93 "Hg10 mi
9:51 PM83 °FPassing clouds.7 mph50%29.93 "Hg10 mi
8:51 PM84 °FPartly sunny.6 mph48%29.92 "Hg10 mi
7:51 PM86 °FScattered clouds.9 mph46%29.90 "Hg10 mi
6:51 PM90 °FPassing clouds.8 mph38%29.90 "Hg10 mi
5:51 PM92 °FPassing clouds.14 mph35%29.90 "Hg10 mi
4:51 PM92 °FPassing clouds.10 mph35%29.90 "Hg10 mi
3:51 PM93 °FPassing clouds.10 mph36%29.91 "Hg10 mi
2:51 PM92 °FScattered clouds.10 mph35%29.95 "Hg10 mi
1:51 PM90 °FPartly sunny.9 mph37%29.97 "Hg10 mi
12:51 PM87 °FPartly sunny.7 mph43%29.99 "Hg10 mi
11:51 AM85 °FBroken clouds.5 mph55%30.01 "Hg10 mi
10:51 AM80 °FOvercast.6 mph62%30.01 "Hg10 mi
9:51 AM79 °FOvercast.3 mph60%30.00 "Hg10 mi
8:51 AM78 °FOvercast.5 mph60%30.00 "Hg10 mi
7:51 AM76 °FOvercast.No wind67%29.99 "Hg10 mi
6:51 AM76 °FClear.No wind67%29.98 "Hg10 mi
5:51 AM75 °FOvercast.3 mph71%29.97 "Hg10 mi
4:51 AM76 °FLight rain. Mostly cloudy.7 mph67%29.95 "Hg10 mi
Weather by CustomWeather, © 2015

See weather overviewHow to use our weather pages